Tracking 20083 objects as of 9-Dec-2019
HD Live streaming from Space Station
objects crossing your sky now

COSMOS 2251 DEB

Track COSMOS 2251 DEB now!
10-day predictions


NORAD ID: 34024
Int'l Code: 1993-036HK
Perigee: 771.9 km
Apogee: 805.7 km
Inclination: 74.0 °
Period: 100.5 minutes
Semi major axis: 7159 km
RCS: 0.084 m2 (small)
Launch date: June 16, 1993
Source: Commonwealth of Independent States (former USSR) (CIS)
Launch site: PLESETSK MISSILE AND SPACE COMPLEX (PKMTR)

Note: This is SATELLITE DEBRIS
aabbcc
Your satellite tracking list
Your tracking list is empty




NASA's NSSDC Master Catalog

Two Line Element Set (TLE):
1 34024U 93036HK  19342.87347463 +.00000076 +00000-0 +37154-4 0  9992
2 34024 074.0477 009.8088 0023633 245.9827 287.9120 14.33017663565538
Source of the keplerian elements: AFSPC